FW0135 Weather Reports


time (UTC)temp
C
wind
direction
speed
KPH
gust
KPH
rain 1hr
cm
rain 24hr
cm
rain mn
cm
humidity
%
barometer
mb
20260901154344 16 74 0.0 0.0 0.00 0.84 0.84 93 1004.2
20260901152842 16 74 0.0 0.0 0.00 0.84 0.84 93 1003.9
20260901152345 16 74 0.0 0.0 0.00 0.84 0.84 93 1003.9
20260901151839 16 74 0.0 0.0 0.00 0.84 0.84 93 1003.8
20260901151338 16 74 0.0 0.0 0.00 0.84 0.84 93 1003.7
20260901150838 16 74 0.0 0.0 0.00 0.84 0.84 93 1003.7
20260901150335 16 74 0.0 0.0 0.00 0.84 0.84 93 1003.6
20260901145837 16 74 0.0 0.0 0.00 0.84 0.84 92 1003.6
20260901145332 16 74 0.0 0.0 0.00 0.84 0.84 92 1003.6
20260901144832 16 74 0.0 0.0 0.00 0.84 0.84 92 1003.7
20260901144333 16 74 0.0 0.0 0.03 0.84 0.84 92 1003.8
20260901143832 16 74 0.0 0.0 0.03 0.84 0.84 92 1003.9
20260901143332 16 74 0.0 0.0 0.05 0.84 0.84 92 1003.8
20260901142831 16 74 0.0 0.0 0.05 0.84 0.84 92 1003.8
20260901142331 16 74 0.0 0.0 0.05 0.84 0.84 92 1003.7
20260901141832 16 74 0.0 0.0 0.08 0.84 0.84 92 1003.8
20260901141333 16 74 0.0 0.0 0.08 0.84 0.84 92 1003.8
20260901134831 16 74 0.0 0.0 0.23 0.84 0.84 93 1003.8
20260901133831 15 74 0.0 0.0 0.28 0.81 0.81 93 1003.6
20260901133332 15 74 0.0 0.0 0.33 0.79 0.79 93 1003.6
20260901132829 15 74 0.0 0.0 0.41 0.79 0.79 92 1003.6
20260901132323 15 74 0.0 0.0 0.43 0.79 0.79 92 1003.6
20260901131817 15 74 0.0 0.0 0.43 0.76 0.76 92 1003.6
20260901131311 15 74 0.0 0.0 0.46 0.76 0.76 92 1003.7
20260901130300 15 74 0.0 0.0 0.46 0.71 0.71 92 1003.9
20260901125754 15 74 0.0 0.0 0.43 0.66 0.69 92 1003.9
20260901125248 15 74 0.0 0.0 0.43 0.64 0.64 92 1004.0
20260901124742 15 74 0.0 0.0 0.43 0.58 0.61 92 1004.2
20260901124236 15 74 0.0 0.0 0.43 0.58 0.56 92 1004.3
20260901123729 15 74 0.0 0.0 0.41 0.53 0.51 92 1004.3
20260901122713 15 74 0.0 0.0 0.36 0.41 0.38 92 1004.4
20260901122207 15 74 0.0 0.0 0.36 0.38 0.36 92 1004.5
20260901121702 15 74 0.0 0.0 0.33 0.36 0.33 91 1004.4
20260901120143 15 74 0.0 0.0 0.25 0.28 0.25 91 1004.5
20260901115638 15 74 0.0 0.0 0.23 0.25 0.23 91 1004.4
20260901115132 15 74 0.0 0.0 0.18 0.20 0.20 91 1004.5
20260901114625 15 74 0.0 0.0 0.13 0.15 0.15 91 1004.4
20260901114120 15 74 0.0 0.0 0.13 0.15 0.13 91 1004.3
20260901113613 15 74 0.0 0.0 0.10 0.13 0.10 90 1004.2
20260901113107 15 74 0.0 0.0 0.05 0.08 0.08 90 1004.1
20260901112601 15 74 0.0 0.0 0.03 0.05 0.03 90 1004.0
20260901112055 16 74 0.0 0.0 0.00 0.03 0.00 90 1003.8
20260901111550 16 74 0.0 0.0 0.00 0.03 0.00 90 1003.6
20260901111044 16 74 0.0 0.0 0.00 0.03 0.00 90 1003.5
20260901110537 16 74 0.0 0.0 0.00 0.03 0.00 90 1003.6
20260901110031 16 74 0.0 0.0 0.00 0.03 0.00 90 1003.5
20260901105526 16 74 0.0 0.0 0.00 0.03 0.00 90 1003.4
20260901105020 16 74 0.0 0.0 0.00 0.03 0.00 90 1003.4
20260901104513 16 74 0.0 0.0 0.00 0.03 0.00 90 1003.6
20260901104008 16 74 0.0 0.0 0.00 0.03 0.00 90 1003.4
20260901103502 16 74 0.0 0.0 0.00 0.03 0.00 90 1003.4
20260901102956 15 74 0.0 0.0 0.00 0.03 0.00 90 1003.4
20260901102449 15 74 0.0 0.0 0.00 0.03 0.00 90 1003.4
20260901101943 15 74 0.0 0.0 0.00 0.03 0.00 90 1003.3
20260901100932 15 74 0.0 0.0 0.00 0.03 0.00 90 1003.2
20260901100425 15 74 0.0 0.0 0.00 0.03 0.00 90 1003.1
20260901095919 15 74 0.0 0.0 0.00 0.03 0.00 90 1003.0
20260901095413 15 74 0.0 0.0 0.00 0.03 0.00 90 1002.9
20260901094907 15 74 0.0 0.0 0.00 0.03 0.00 90 1002.8
20260901094402 15 74 0.0 0.0 0.00 0.03 0.00 90 1002.7
20260901093856 15 74 0.0 0.0 0.00 0.03 0.00 90 1002.8
20260901093349 15 74 0.0 0.0 0.00 0.03 0.00 90 1002.8
20260901092843 15 74 0.0 0.0 0.00 0.03 0.00 90 1002.7
20260901092337 15 74 0.0 0.0 0.00 0.03 0.00 90 1002.8
20260901091832 15 74 0.0 0.0 0.00 0.03 0.00 90 1002.8
20260901091326 15 74 0.0 0.0 0.00 0.03 0.00 90 1002.9
20260901090819 15 74 0.0 0.0 0.00 0.03 0.00 90 1002.8
20260901085305 15 74 0.0 0.0 0.00 0.03 0.00 90 1002.9
20260901084757 15 74 0.0 0.0 0.00 0.03 0.00 90 1002.9
20260901084249 15 74 0.0 0.0 0.00 0.03 0.00 90 1002.9
20260901083748 15 74 0.0 0.0 0.00 0.03 0.00 90 1002.9
20260901083247 15 74 0.0 0.0 0.00 0.03 0.00 90 1002.9
20260901082745 15 74 0.0 0.0 0.00 0.03 0.00 90 1002.8
20260901082245 15 74 0.0 0.0 0.00 0.03 0.00 90 1002.9
20260901081746 15 74 0.0 0.0 0.00 0.03 0.00 91 1003.0
20260901081242 15 74 0.0 0.0 0.00 0.03 0.00 91 1003.0
20260901080242 15 74 0.0 0.0 0.00 0.03 0.00 91 1003.0
20260901075740 15 74 0.0 0.0 0.00 0.03 0.00 91 1003.0
20260901075238 15 74 0.0 0.0 0.00 0.03 0.00 91 1003.1
20260901074737 15 74 0.0 0.0 0.00 0.03 0.00 91 1003.0
20260901074235 15 74 0.0 0.0 0.00 0.03 0.00 91 1003.0
20260901073733 15 74 0.0 0.0 0.00 0.03 0.00 90 1003.1
20260901073232 15 74 0.0 0.0 0.00 0.03 0.00 90 1003.1
20260901072228 15 74 0.0 0.0 0.00 0.03 0.00 90 1003.2
20260901071730 15 74 0.0 0.0 0.00 0.03 0.00 90 1003.3
20260901071226 15 74 0.0 0.0 0.00 0.03 0.00 90 1003.3
20260901070725 15 74 0.0 0.0 0.00 0.03 0.00 90 1003.5
20260901070225 15 74 0.0 0.0 0.00 0.03 0.00 90 1003.4
20260901065726 15 74 0.0 0.0 0.00 0.03 0.00 90 1003.4
20260901065225 15 74 0.0 0.0 0.00 0.03 0.00 90 1003.3
20260901064724 15 74 0.0 0.0 0.00 0.03 0.00 90 1003.2
20260901064225 15 74 0.0 0.0 0.00 0.03 0.00 90 1003.3
20260901063726 15 74 0.0 0.0 0.00 0.03 0.00 90 1003.6
20260901063225 15 74 0.0 0.0 0.00 0.03 0.00 90 1003.6
20260901062725 15 74 0.0 0.0 0.00 0.03 0.00 90 1003.4
20260901062226 15 74 0.0 0.0 0.00 0.03 0.00 90 1003.6
20260901061725 15 74 0.0 0.0 0.00 0.03 0.00 90 1003.6
20260901061226 15 74 0.0 0.0 0.00 0.03 0.00 90 1003.6
20260901060725 15 74 0.0 0.0 0.00 0.03 0.00 90 1003.6
20260901060225 15 74 0.0 0.0 0.00 0.03 0.00 90 1003.5
20260901055725 15 74 0.0 0.0 0.00 0.03 0.00 90 1003.4
20260901055225 16 74 0.0 0.0 0.00 0.03 0.00 90 1003.5
20260901054723 15 74 0.0 0.0 0.00 0.03 0.00 90 1003.5
20260901054217 15 74 0.0 0.0 0.00 0.03 0.00 90 1003.5
20260901053710 15 74 0.0 0.0 0.00 0.03 0.00 90 1003.6
20260901053204 15 74 0.0 0.0 0.00 0.03 0.00 90 1003.7
20260901052658 16 74 0.0 0.0 0.00 0.03 0.00 90 1003.6
20260901052200 16 74 0.0 0.0 0.00 0.03 0.00 90 1003.6
20260901051159 16 74 0.0 0.0 0.00 0.03 0.00 89 1003.6
20260901050659 16 74 0.0 0.0 0.00 0.03 0.00 89 1003.6
20260901050155 16 74 0.0 0.0 0.00 0.03 0.00 89 1003.7
20260901045652 16 74 0.0 0.0 0.00 0.03 0.00 89 1003.7
20260901045151 16 74 0.0 0.0 0.00 0.03 0.00 89 1003.6
20260901044649 16 74 0.0 0.0 0.00 0.03 0.00 89 1003.4
20260901044148 16 74 0.0 0.0 0.00 0.03 0.00 89 1003.4
20260901043649 16 74 0.0 0.0 0.00 0.03 0.00 89 1003.4
20260901043147 16 74 0.0 0.0 0.00 0.03 0.00 89 1003.3
20260901042645 16 74 0.0 0.0 0.00 0.03 0.00 89 1003.3
20260901042144 16 74 0.0 0.0 0.00 0.03 0.00 88 1003.3
20260901041646 16 74 0.0 0.0 0.00 0.03 0.00 88 1003.4
20260901041142 16 74 0.0 0.0 0.00 0.03 0.00 88 1003.3
20260901040641 16 74 0.0 0.0 0.00 0.03 0.00 88 1003.3
20260901040144 16 74 0.0 0.0 0.00 0.03 0.00 88 1003.2
20260901035640 16 74 0.0 0.0 0.00 0.03 0.03 88 1003.2
20260901035137 16 74 0.0 0.0 0.00 0.03 0.03 88 1003.3
20260901034633 17 74 0.0 0.0 0.00 0.03 0.03 88 1003.4
20260901034126 17 74 0.0 0.0 0.00 0.03 0.03 88 1003.5
20260901033621 17 74 0.0 0.0 0.00 0.03 0.03 87 1003.4
20260901033115 17 74 0.0 0.0 0.00 0.03 0.03 88 1003.5
20260901032609 17 74 0.0 0.0 0.00 0.03 0.03 88 1003.3
20260901032103 17 74 0.0 0.0 0.00 0.03 0.03 88 1003.3
20260901031556 17 74 0.0 0.0 0.00 0.03 0.03 87 1003.3
20260901031051 17 74 0.0 0.0 0.00 0.03 0.03 87 1003.5
20260901030545 17 74 0.0 0.0 0.00 0.03 0.03 87 1003.4
20260901030038 17 74 0.0 0.0 0.00 0.03 0.03 87 1003.4
20260901025533 17 74 0.0 0.0 0.00 0.03 0.03 87 1003.5
20260901025027 17 74 0.0 0.0 0.00 0.03 0.03 87 1003.4
20260901024521 17 74 0.0 0.0 0.00 0.03 0.03 87 1003.4
20260901024014 17 74 0.0 0.0 0.00 0.03 0.03 86 1003.5
20260901023509 17 74 0.0 0.0 0.00 0.03 0.03 86 1003.4
20260901022503 17 74 0.0 0.0 0.00 0.03 0.03 86 1003.3
20260901022003 17 74 0.0 0.0 0.00 0.03 0.03 86 1003.3
20260901021501 17 74 0.0 0.0 0.00 0.03 0.03 86 1003.3
20260901020959 18 74 0.0 0.0 0.00 0.03 0.03 85 1003.3
20260901020458 18 74 0.0 0.0 0.00 0.03 0.03 85 1003.3
20260901015957 18 74 0.0 0.0 0.00 0.03 0.03 85 1003.3
20260901014956 18 74 0.0 0.0 0.00 0.03 0.03 84 1003.4
20260901014455 18 74 0.0 0.0 0.00 0.03 0.03 84 1003.4
20260901013955 18 74 0.0 0.0 0.00 0.03 0.03 84 1003.3
20260901013455 18 74 0.0 0.0 0.00 0.03 0.03 84 1003.2
20260901012952 18 74 0.0 0.0 0.00 0.03 0.03 84 1003.3
20260901012451 18 74 0.0 0.0 0.00 0.03 0.03 84 1003.3
20260901011947 18 74 0.0 0.0 0.00 0.03 0.03 83 1003.4
20260901011446 18 74 0.0 0.0 0.00 0.03 0.03 83 1003.4
20260901010943 18 74 0.0 0.0 0.00 0.03 0.03 83 1003.5
20260901010444 18 74 0.0 0.0 0.00 0.03 0.03 82 1003.5
20260901005943 18 74 0.0 0.0 0.00 0.03 0.03 82 1003.4
20260901004940 19 74 0.0 0.0 0.00 0.03 0.03 82 1003.4
20260901004434 19 74 0.0 0.0 0.00 0.03 0.03 81 1003.4
20260901003421 19 74 0.0 0.0 0.00 0.03 0.03 81 1003.4
20260901002916 19 74 0.0 0.0 0.00 0.03 0.03 80 1003.5
20260901001903 20 74 0.0 0.0 0.00 0.03 0.03 80 1003.3
20260901000851 20 74 0.0 0.0 0.00 0.03 0.03 79 1003.3
20260901000345 20 74 0.0 0.0 0.00 0.03 0.03 78 1003.3
20260831235333 20 74 0.0 0.0 0.00 0.03 0.03 77 1003.2
20260831234827 20 74 0.0 0.0 0.00 0.03 0.03 78 1003.1
20260831234322 21 74 0.0 0.0 0.00 0.03 0.03 77 1003.1
20260831233816 21 74 0.0 0.0 0.00 0.03 0.03 76 1003.1
20260831233311 21 74 0.0 0.0 0.00 0.03 0.03 75 1003.2
20260831232803 21 74 0.0 0.0 0.00 0.03 0.03 75 1003.1
20260831232258 21 74 0.0 0.0 0.00 0.03 0.03 75 1003.2
20260831231752 22 74 0.0 0.0 0.00 0.03 0.03 73 1003.3
20260831231246 22 74 0.0 0.0 0.00 0.03 0.03 73 1003.3
20260831225730 22 74 0.0 0.0 0.00 0.03 0.03 70 1003.5
20260831225231 23 74 0.0 0.0 0.00 0.03 0.03 67 1003.4
20260831224731 23 74 0.0 0.0 0.00 0.03 0.03 68 1003.4
20260831223728 23 74 0.0 0.0 0.00 0.03 0.03 65 1003.4
20260831223227 23 74 0.0 0.0 0.00 0.03 0.03 64 1003.4
20260831220215 24 74 0.0 0.0 0.00 0.03 0.03 64 1003.3
20260831215715 24 74 0.0 0.0 0.00 0.03 0.03 63 1003.3
20260831215214 24 74 0.0 0.0 0.00 0.03 0.03 62 1003.3
20260831214716 24 74 0.0 0.0 0.00 0.03 0.03 60 1003.3
20260831214216 24 74 0.0 0.0 0.00 0.03 0.03 60 1003.2
20260831213716 24 74 0.0 0.0 0.00 0.03 0.03 61 1003.3
20260831213211 24 74 0.0 0.0 0.00 0.03 0.03 60 1003.3
20260831212711 24 74 0.0 0.0 0.00 0.03 0.03 61 1003.2
20260831211712 24 74 0.0 0.0 0.00 0.03 0.03 59 1003.2
20260831211212 24 74 0.0 0.0 0.00 0.03 0.03 59 1003.3
20260831210710 24 74 0.0 0.0 0.00 0.03 0.03 59 1003.2
20260831210211 24 74 0.0 0.0 0.00 0.03 0.03 57 1003.3
20260831205710 25 74 0.0 0.0 0.00 0.03 0.03 56 1003.3
20260831205211 25 74 0.0 0.0 0.00 0.03 0.03 55 1003.4
20260831204711 25 74 0.0 0.0 0.00 0.03 0.03 54 1003.4
20260831204210 25 75 0.0 0.0 0.00 0.03 0.03 55 1003.5
20260831203211 25 75 0.0 0.0 0.00 0.03 0.03 54 1003.5
20260831202711 25 75 0.0 0.0 0.00 0.03 0.03 55 1003.6
20260831202211 25 75 0.0 0.0 0.00 0.03 0.03 55 1003.6
20260831201711 25 75 0.0 0.0 0.00 0.03 0.03 51 1003.6
20260831200712 24 51 0.0 1.6 0.00 0.03 0.03 52 1003.6
20260831200206 24 51 0.0 1.6 0.00 0.03 0.03 52 1003.7
20260831195700 24 84 0.0 3.2 0.00 0.03 0.03 49 1003.7
20260831195154 24 84 0.0 3.2 0.00 0.03 0.03 50 1003.7
20260831194141 24 84 0.0 0.0 0.00 0.03 0.03 49 1003.8
20260831193129 24 82 0.0 0.0 0.00 0.03 0.03 52 1003.9
20260831192624 24 82 0.0 0.0 0.00 0.03 0.03 51 1003.9
20260831192118 24 80 0.0 0.0 0.00 0.03 0.03 57 1003.9
20260831191612 24 80 0.0 0.0 0.00 0.03 0.03 55 1003.9
20260831191106 24 80 0.0 0.0 0.00 0.03 0.03 57 1003.9
20260831190600 24 80 0.0 0.0 0.00 0.03 0.03 56 1003.9
20260831185547 24 81 0.0 0.0 0.00 0.03 0.03 55 1004.1
20260831185042 24 89 0.0 0.0 0.00 0.03 0.03 52 1004.1
20260831183524 24 87 0.0 0.0 0.00 0.03 0.03 51 1004.2
20260831183018 24 87 0.0 0.0 0.00 0.03 0.03 51 1004.3
20260831182512 24 87 0.0 0.0 0.00 0.03 0.03 48 1004.4
20260831182006 24 80 0.0 0.0 0.00 0.03 0.03 53 1004.6
20260831180954 23 44 0.0 0.0 0.00 0.03 0.03 54 1004.5
20260831180448 23 44 0.0 0.0 0.00 0.03 0.03 54 1004.4
20260831175941 23 44 0.0 0.0 0.00 0.03 0.03 55 1004.4
20260831175436 23 44 0.0 0.0 0.00 0.03 0.03 55 1004.5
20260831174930 24 44 0.0 0.0 0.00 0.03 0.03 55 1004.7
20260831174424 24 44 0.0 0.0 0.00 0.03 0.03 57 1004.7
20260831173918 24 44 0.0 0.0 0.00 0.03 0.03 57 1004.8
20260831173412 24 44 0.0 0.0 0.00 0.03 0.03 55 1004.8
20260831172906 24 44 0.0 0.0 0.00 0.03 0.03 56 1004.9
20260831171854 24 51 0.0 0.0 0.00 0.03 0.03 57 1004.9
20260831171348 24 351 0.0 0.0 0.00 0.03 0.03 55 1005.1
20260831170842 24 42 0.0 0.0 0.00 0.03 0.03 61 1005.2
20260831170335 24 42 0.0 0.0 0.00 0.03 0.03 64 1005.3
20260831165324 23 44 0.0 0.0 0.00 0.03 0.03 59 1005.3
20260831164818 23 44 0.0 0.0 0.00 0.03 0.03 67 1005.4
20260831164311 23 44 0.0 0.0 0.00 0.03 0.03 61 1005.5
20260831163805 22 44 0.0 0.0 0.00 0.03 0.03 65 1005.6
20260831163259 22 44 0.0 0.0 0.00 0.03 0.03 66 1005.6
20260831162754 22 44 0.0 0.0 0.00 0.03 0.03 62 1005.7
20260831162249 22 44 0.0 0.0 0.00 0.03 0.03 67 1005.7
20260831161741 21 26 0.0 0.0 0.00 0.03 0.03 67 1005.7
20260831161235 21 26 0.0 0.0 0.00 0.03 0.03 68 1005.7
20260831160730 21 26 0.0 0.0 0.00 0.03 0.03 69 1005.8
20260831160224 21 26 0.0 0.0 0.00 0.03 0.03 70 1005.8
20260831155212 21 26 0.0 0.0 0.00 0.03 0.03 66 1005.8